Home   Weather   Resolute Bay   Past weeks
Flag for Canada

Past Weather in Resolute Bay, Nunavut, Canada — Yesterday and Last 2 Weeks

Now
41 °F

Broken clouds.


Feels Like: 31 °F
Forecast: 43 / 39 °F
Wind: 25 mph from East

Location: Resolute

Current Time: Jul 16, 2019 at 11:44:16 am

Latest Report: Jul 16, 2019 at 11:00 am


Visibility: 12 mi

Pressure: 29.64 "Hg

Humidity: 93%

Dew Point: 39 °F

Location of Resolute BayLocation

Past Weather in Resolute Bay — Graph

°F

Resolute Bay Temperature Yesterday

Maximum temperature yesterday: 46 °F (at 3:00 pm)
Minimum temperature yesterday: 37 °F (at 12:26 am)
Average temperature yesterday: 40 °F

High & Low Weather Summary for the Past Weeks

 TemperatureHumidityPressure
High57 °F (Jul 1, 4:00 pm)100% (Jul 7, 2:00 am)30.16 "Hg (Jul 7, 2:00 am)
Low34 °F (Jul 6, 1:00 am)41% (Jul 4, 2:00 pm)29.48 "Hg (Jul 12, 4:00 am)
Average42 °F83%29.81 "Hg
* Reported Jul 1 10:00 am — Jul 16 10:00 am, Resolute Bay. Weather by CustomWeather, © 2019

Note: Actual official high and low records may vary slightly from our data, if they occured in-between our weather recording intervals... More about our weather records

Advertising

Resolute Bay Weather History for the Previous 24 Hours

Scroll right to see more
 ConditionsComfort  
Time TempWeatherWind HumidityBarometerVisibility
10:00 am
Tue, Jul 16
41 °FPartly sunny.22 mph93%29.65 "Hg8 mi
9:00 am41 °FMostly cloudy.20 mph87%29.65 "Hg9 mi
8:00 am39 °FLow clouds.20 mph93%29.66 "Hg9 mi
7:00 am41 °FLow clouds.21 mph87%29.66 "Hg9 mi
6:00 am41 °FLow clouds.20 mph87%29.66 "Hg9 mi
5:00 am39 °FMostly cloudy.17 mph93%29.66 "Hg9 mi
4:00 am41 °FMostly cloudy.14 mph87%29.67 "Hg9 mi
3:00 am41 °FMostly cloudy.16 mph93%29.67 "Hg9 mi
2:00 am39 °FLow clouds.15 mph93%29.67 "Hg9 mi
1:00 am39 °FLow clouds.18 mph87%29.67 "Hg9 mi
12:00 am39 °FMore clouds than sun.17 mph100%29.67 "Hg9 mi
11:00 pm
Mon, Jul 15
41 °FLow clouds.17 mph93%29.67 "Hg9 mi
10:00 pm41 °FLow clouds.21 mph93%29.67 "Hg9 mi
9:42 pm41 °FDrizzle. Mostly cloudy.14 mph93%29.67 "Hg8 mi
9:31 pm41 °FDrizzle. Fog.17 mph93%29.68 "Hg6 mi
9:20 pm41 °FLight rain. Fog.14 mph93%29.68 "Hg9 mi
9:00 pm41 °FLow clouds.18 mph93%29.67 "Hg9 mi
8:00 pm43 °FPartly sunny.16 mph93%29.67 "Hg8 mi
7:00 pm41 °FDrizzle. More clouds than sun.18 mph93%29.68 "Hg7 mi
6:44 pm41 °FDrizzle. Overcast.18 mph93%29.68 "Hg7 mi
6:00 pm43 °FOvercast.18 mph87%29.67 "Hg7 mi
5:00 pm43 °FDrizzle. Partly sunny.15 mph93%29.67 "Hg7 mi
4:26 pm43 °FDrizzle. Mostly cloudy.18 mph93%29.66 "Hg7 mi
4:00 pm45 °FBroken clouds.18 mph87%29.66 "Hg7 mi
3:00 pm46 °FPartly sunny.15 mph87%29.65 "Hg12 mi
2:00 pm45 °FMostly cloudy.15 mph93%29.65 "Hg10 mi
1:00 pm45 °FLow clouds.15 mph93%29.65 "Hg8 mi
12:00 pm41 °FLow clouds.14 mph100%29.63 "Hg8 mi
11:36 am41 °FLow clouds.14 mph93%29.63 "Hg7 mi
11:00 am39 °FFog.13 mph100%29.63 "Hg1 mi
Weather by CustomWeather, © 2019

See weather overview

LIVE PARTIAL LUNAR ECLIPSE – Watch the eclipse as it happens